Location: Newark
(34.6283°N, 36.0776°E)
Time: 19:34:47
(UTC+00:00)

A-11 Canister half - Pass Details

Date: 26 September 2019
Orbit: 1527 x 1682 km, 47.3° (Epoch: 20 October)

Event Time Altitude Azimuth Distance (km) Brightness Sun altitude
Rises 21:43:35 0° 201° (SSW) 4,669 - -56.5°
Reaches altitude 10° 21:46:54 10° 193° (SSW) 3,684 - -56.4°
Maximum altitude 21:55:08 37° 130° (SE) 2,209 - -56.1°
Exits shadow 22:02:55 12° 69° (ENE) 3,581 11.1 -55.7°
Drops below altitude 10° 22:03:26 10° 67° (ENE) 3,728 11.2 -55.7°
Sets 22:06:48 0° 60° (ENE) 4,731 11.9 -55.5°
